• In Hungary
  • List of Countries
  • For 7 days
  • Water Temperature
  • Satellite Maps
  • Weather Map
  • News
  • Weather Widgets
  • user-avatar
    Login

    Hourly Weather Skowronkow

    Today, 23 September, Sunday

    Time Temperature Precipitation Wind Pressure Humidity
    00:00 +12°C° 0.1 mm 3 mps 730 mmHg 66%
    01:00 +11°C° 0.1 mm 4 mps 730 mmHg 69%
    02:00 +11°C° 0 mm 4 mps 730 mmHg 71%
    03:00 +10°C° 0 mm 4 mps 729 mmHg 73%
    04:00 +10°C° 0 mm 3 mps 729 mmHg 75%
    05:00 +10°C° 0 mm 3 mps 729 mmHg 75%
    06:00 +10°C° 0 mm 3 mps 729 mmHg 75%
    07:00 +11°C° 0 mm 3 mps 729 mmHg 74%
    08:00 +11°C° 0.1 mm 4 mps 728 mmHg 73%
    09:00 +12°C° 0.1 mm 4 mps 728 mmHg 72%
    10:00 +12°C° 0.1 mm 4 mps 728 mmHg 71%
    11:00 +12°C° 0.1 mm 4 mps 728 mmHg 73%
    12:00 +12°C° 0.1 mm 4 mps 727 mmHg 74%
    13:00 +13°C° 0.1 mm 5 mps 727 mmHg 75%
    14:00 +12°C° 0.3 mm 5 mps 726 mmHg 79%
    15:00 +12°C° 0.3 mm 5 mps 725 mmHg 82%
    16:00 +12°C° 0.3 mm 5 mps 724 mmHg 85%
    17:00 +13°C° 0.2 mm 6 mps 723 mmHg 84%
    18:00 +12°C° 0.2 mm 7 mps 721 mmHg 83%
    19:00 +12°C° 0.2 mm 8 mps 720 mmHg 81%
    20:00 +13°C° 0.9 mm 8 mps 720 mmHg 82%
    21:00 +15°C° 0.9 mm 8 mps 719 mmHg 84%
    22:00 +16°C° 0.9 mm 8 mps 719 mmHg 85%
    23:00 +14°C° 2.4 mm 7 mps 719 mmHg 87%

    Tomorrow, 24 September, Monday

    Time Temperature Precipitation Wind Pressure Humidity
    00:00 +11°C° 2.4 mm 6 mps 719 mmHg 89%
    01:00 +10°C° 2.4 mm 5 mps 720 mmHg 91%
    02:00 +9°C° 1 mm 6 mps 721 mmHg 89%
    03:00 +8°C° 1 mm 7 mps 723 mmHg 87%
    04:00 +6°C° 1 mm 7 mps 725 mmHg 85%
    05:00 +6°C° 0 mm 7 mps 726 mmHg 84%
    06:00 +6°C° 0 mm 7 mps 727 mmHg 84%
    07:00 +6°C° 0 mm 7 mps 728 mmHg 83%
    08:00 +7°C° 0.1 mm 8 mps 729 mmHg 78%
    09:00 +7°C° 0.1 mm 8 mps 730 mmHg 72%
    10:00 +8°C° 0.1 mm 9 mps 731 mmHg 66%
    11:00 +8°C° 0.1 mm 9 mps 732 mmHg 62%
    12:00 +10°C° 0.1 mm 9 mps 732 mmHg 57%
    13:00 +10°C° 0.1 mm 9 mps 732 mmHg 53%
    14:00 +10°C° 0.1 mm 9 mps 732 mmHg 53%
    15:00 +8°C° 0.1 mm 9 mps 733 mmHg 53%
    16:00 +9°C° 0.1 mm 8 mps 733 mmHg 53%
    17:00 +8°C° 0 mm 7 mps 733 mmHg 57%
    18:00 +7°C° 0 mm 6 mps 734 mmHg 60%
    19:00 +6°C° 0 mm 5 mps 734 mmHg 63%
    20:00 +5°C° 0 mm 5 mps 735 mmHg 64%
    21:00 +5°C° 0 mm 5 mps 735 mmHg 65%
    22:00 +5°C° 0 mm 5 mps 736 mmHg 66%
    23:00 +4°C° 0 mm 4 mps 736 mmHg 68%

    Day after tomorrow, 25 September, Tuesday

    Time Temperature Precipitation Wind Pressure Humidity
    00:00 +4°C° 0 mm 4 mps 737 mmHg 70%
    01:00 +4°C° 0 mm 4 mps 737 mmHg 71%
    02:00 +3°C° 0 mm 4 mps 737 mmHg 73%
    03:00 +3°C° 0 mm 4 mps 738 mmHg 76%
    04:00 +3°C° 0 mm 4 mps 738 mmHg 78%
    05:00 +3°C° 0 mm 4 mps 739 mmHg 77%
    06:00 +3°C° 0 mm 4 mps 739 mmHg 77%
    07:00 +4°C° 0 mm 4 mps 740 mmHg 76%
    08:00 +5°C° 0 mm 4 mps 740 mmHg 71%
    09:00 +6°C° 0 mm 4 mps 741 mmHg 66%
    10:00 +8°C° 0 mm 4 mps 741 mmHg 61%
    11:00 +8°C° 0.1 mm 5 mps 741 mmHg 58%
    12:00 +9°C° 0.1 mm 5 mps 741 mmHg 56%
    13:00 +10°C° 0.1 mm 5 mps 741 mmHg 53%
    14:00 +11°C° 0 mm 4 mps 741 mmHg 53%
    15:00 +10°C° 0 mm 4 mps 741 mmHg 53%
    16:00 +10°C° 0 mm 4 mps 741 mmHg 53%
    17:00 +9°C° 0 mm 3 mps 742 mmHg 59%
    18:00 +7°C° 0 mm 2 mps 742 mmHg 65%
    19:00 +7°C° 0 mm 1 mps 742 mmHg 71%
    20:00 +6°C° 0 mm 1 mps 742 mmHg 72%
    21:00 +6°C° 0 mm 1 mps 743 mmHg 73%
    22:00 +6°C° 0 mm 1 mps 743 mmHg 74%
    23:00 +5°C° 0 mm 1 mps 743 mmHg 74%

    26 September, Wednesday

    Time Temperature Precipitation Wind Pressure Humidity
    00:00 +5°C° 0 mm 1 mps 743 mmHg 74%
    01:00 +5°C° 0 mm 1 mps 743 mmHg 74%
    02:00 +5°C° 0 mm 1 mps 743 mmHg 74%
    03:00 +4°C° 0 mm 1 mps 743 mmHg 74%
    04:00 +3°C° 0 mm 2 mps 743 mmHg 74%
    05:00 +4°C° 0 mm 2 mps 742 mmHg 72%
    06:00 +4°C° 0 mm 2 mps 742 mmHg 71%
    07:00 +5°C° 0 mm 2 mps 742 mmHg 69%
    08:00 +7°C° 0 mm 3 mps 742 mmHg 62%
    09:00 +9°C° 0 mm 3 mps 742 mmHg 55%
    10:00 +11°C° 0 mm 4 mps 742 mmHg 47%
    11:00 +12°C° 0 mm 4 mps 741 mmHg 46%
    12:00 +13°C° 0 mm 5 mps 741 mmHg 45%
    13:00 +14°C° 0 mm 5 mps 740 mmHg 44%
    14:00 +13°C° 0 mm 5 mps 740 mmHg 46%
    15:00 +13°C° 0 mm 4 mps 739 mmHg 48%
    16:00 +13°C° 0 mm 4 mps 739 mmHg 51%
    17:00 +12°C° 0 mm 4 mps 738 mmHg 53%
    18:00 +10°C° 0 mm 4 mps 738 mmHg 56%
    19:00 +8°C° 0 mm 4 mps 738 mmHg 58%
    20:00 +9°C° 0 mm 3 mps 738 mmHg 58%
    21:00 +8°C° 0 mm 3 mps 738 mmHg 58%
    22:00 +8°C° 0 mm 3 mps 738 mmHg 57%
    23:00 +8°C° 0 mm 3 mps 738 mmHg 58%

    27 September, Thursday

    Time Temperature Precipitation Wind Pressure Humidity
    00:00 +7°C° 0 mm 3 mps 737 mmHg 58%
    01:00 +7°C° 0 mm 3 mps 737 mmHg 59%
    02:00 +7°C° 0 mm 3 mps 737 mmHg 60%
    03:00 +7°C° 0 mm 3 mps 736 mmHg 60%
    04:00 +7°C° 0 mm 3 mps 736 mmHg 61%
    05:00 +7°C° 0 mm 3 mps 736 mmHg 62%
    06:00 +7°C° 0 mm 3 mps 736 mmHg 63%
    07:00 +8°C° 0 mm 3 mps 736 mmHg 63%
    08:00 +10°C° 0 mm 3 mps 736 mmHg 58%
    09:00 +12°C° 0 mm 3 mps 736 mmHg 53%
    10:00 +16°C° 0 mm 3 mps 736 mmHg 48%
    11:00 +17°C° 0 mm 3 mps 735 mmHg 45%
    12:00 +18°C° 0 mm 3 mps 735 mmHg 43%
    13:00 +19°C° 0 mm 4 mps 735 mmHg 41%
    14:00 +19°C° 0 mm 3 mps 734 mmHg 44%
    15:00 +19°C° 0 mm 3 mps 734 mmHg 47%
    16:00 +19°C° 0 mm 3 mps 733 mmHg 49%
    17:00 +17°C° 0 mm 2 mps 733 mmHg 53%
    18:00 +15°C° 0 mm 2 mps 733 mmHg 57%
    19:00 +13°C° 0 mm 2 mps 733 mmHg 61%
    20:00 +13°C° 0 mm 2 mps 733 mmHg 61%
    21:00 +12°C° 0 mm 2 mps 733 mmHg 61%
    22:00 +12°C° 0 mm 2 mps 732 mmHg 61%
    23:00 +12°C° 0 mm 2 mps 732 mmHg 61%

    28 September, Friday

    Time Temperature Precipitation Wind Pressure Humidity
    00:00 +12°C° 0 mm 2 mps 732 mmHg 62%
    01:00 +10°C° 0 mm 2 mps 731 mmHg 63%
    02:00 +10°C° 0 mm 2 mps 731 mmHg 64%
    03:00 +10°C° 0 mm 2 mps 731 mmHg 65%
    04:00 +10°C° 0 mm 2 mps 731 mmHg 67%
    05:00 +10°C° 0 mm 2 mps 731 mmHg 68%
    06:00 +12°C° 0 mm 2 mps 731 mmHg 70%
    07:00 +12°C° 0 mm 2 mps 731 mmHg 71%
    08:00 +13°C° 0 mm 2 mps 731 mmHg 73%
    09:00 +14°C° 0 mm 2 mps 732 mmHg 74%
    10:00 +14°C° 0 mm 2 mps 732 mmHg 76%
    11:00 +14°C° 0.2 mm 2 mps 732 mmHg 78%
    12:00 +13°C° 0.2 mm 2 mps 732 mmHg 81%
    13:00 +13°C° 0.2 mm 2 mps 732 mmHg 83%
    14:00 +13°C° 0 mm 2 mps 731 mmHg 82%
    15:00 +13°C° 0 mm 2 mps 731 mmHg 80%
    16:00 +13°C° 0 mm 2 mps 731 mmHg 79%
    17:00 +12°C° 0 mm 1 mps 731 mmHg 81%
    18:00 +11°C° 0 mm 1 mps 731 mmHg 83%
    19:00 +11°C° 0 mm 1 mps 731 mmHg 86%
    20:00 +11°C° 0 mm 1 mps 731 mmHg 85%
    21:00 +10°C° 0 mm 1 mps 731 mmHg 85%
    22:00 +10°C° 0 mm 1 mps 731 mmHg 84%
    23:00 +10°C° 0.5 mm 1 mps 730 mmHg 86%
    Show more